SL-12 DEB, 43334

Orbit data source: Space-Track

SL-12 DEB, 43334 is space debris in LEO originally from a launch on Tue, 10 Jan 1989 UTC launched from the Tyuratam Missile And Space Complex (TTMTR). Debris objects in space refer to the collection of defunct objects orbiting the Earth. Examples of debris include non-operational satellites, rocket bodies, and fragments generated from explosions, collisions, or faulty payload assembly.

Loading next visibility...
Identifier
43334, 1989-001Y
Orbit
LEO
Country
Flag of CISCIS
Related business
Manufacturer
Unknown
Mission
Spacecraft
Bus & Motor
Unknown
Mass
Unknown
Launch date (UTC)
1989-01-10 (37 years ago)
Launch vehicle
Unknown
Launch site
Tyuratam Missile And Space Complex (TTMTR)
Object type
Payload
Rocket body
Debris
Shape & HBR
Unknown shape, 0.1 m
Radar Cross Section
Medium (>0.1 m² and <1 m²)

Expand to show TLE details & history
Last TLE update: 12 hours ago

TLE from 12 hours ago
0 SL-12 DEB
1 43334U 89001Y   25288.86681330  .00004941  00000-0  81208-1 0  9993
2 43334  64.6213 128.1324 1737520  20.8930 345.4856  9.84965615137020
Epoch: 2025-10-15T20:48Z
TLE epoch observation values (Epoch: 2025-10-15T20:48:12.669Z)
Latitude
0.00005°
Longitude
151.4449°
Altitude
1,292.903 km
Speed
7.784 km/s
True Right ascension
08h 32m 31s
True Declination
0° 00' 00"
Sunlit
Object was in daylight at epoch
Visualization orbit readout
Latitude
Unknown
Longitude
Unknown
Altitude
Unknown
Speed
Unknown
Apparent Right ascension
Unknown
Apparent Declination
Unknown
Sunlit
N/A
Visualization observer readout
Local Sidereal Time
03:36:28
Azimuth
Unknown
Elevation
Unknown
Doppler factor
Unknown
Orbital elements
Apogee altitude
4,410.781 km
Perigee altitude
1,216.586 km
Semi-major axis
9,191.821 km
Eccentricity
0.17375
Inclination
64.6213°
RAAN
128.1324°
Arg. of periapsis
20.893°
True anomaly
339.19824°
Mean anomaly
345.4856°
Eccentric anomaly
342.49041°
Mean motion
2.46287 °/min
Orbital period
146.17 mins
BSTAR
0.081208
Loading maneuver chart data...
Computing Atmospheric mass density...
Loading historical data...
Loading historical data...
Loading historical data...
Loading historical data...
Loading historical data...
Loading historical data...
Loading historical data...

Documentation

Showing up to 5 results
|